EW5123 Weather Reports


Display with metric or nautical units.
time (UTC)temp
F
wind
direction
speed
MPH
gust
MPH
rain 1hr
in
rain 24hr
in
rain mn
in
humidity
%
barometer
mb
20260507120614 31 316 0.0 0.0 0.00 0.33 0.00 64 981.3
20260507120114 31 224 0.0 0.0 0.00 0.33 0.00 63 981.3
20260507115614 31 148 0.0 0.0 0.00 0.33 0.00 63 981.3
20260507115114 32 39 0.0 0.0 0.00 0.33 0.00 61 981.4
20260507114615 33 39 0.0 0.0 0.00 0.33 0.00 58 981.4
20260507114118 37 235 2.0 5.0 0.00 0.33 0.00 49 981.4
20260507114112 36 72 0.0 4.0 0.00 0.33 0.00 54 981.4
20260507113612 37 56 1.0 5.0 0.00 0.33 0.00 49 981.3
20260507112612 36 214 2.0 5.0 0.00 0.33 0.00 51 981.4
20260507112112 34 233 1.0 5.0 0.00 0.33 0.00 55 981.4
20260507111612 30 160 0.0 3.0 0.00 0.33 0.00 65 981.4
20260507111112 29 18 0.0 1.0 0.00 0.33 0.00 71 981.3
20260507110616 28 219 0.0 0.0 0.00 0.33 0.00 69 981.3
20260507110612 28 219 0.0 0.0 0.00 0.33 0.00 70 981.3
20260507110217 29 219 0.0 0.0 0.00 0.33 0.00 68 981.4
20260507105715 29 219 0.0 0.0 0.00 0.33 0.00 69 981.3
20260507104610 30 219 0.0 0.0 0.00 0.33 0.00 66 981.3
20260507104110 31 219 0.0 0.0 0.00 0.33 0.00 64 981.4
20260507103610 32 235 0.0 0.0 0.00 0.33 0.00 61 981.4
20260507103110 34 235 0.0 0.0 0.00 0.33 0.00 58 981.3
20260507102610 35 235 0.0 0.0 0.00 0.33 0.00 55 981.4
20260507102110 36 238 0.0 1.0 0.00 0.33 0.00 51 981.4
20260507101610 36 212 0.0 2.0 0.00 0.33 0.00 52 981.4
20260507101117 38 269 2.0 4.0 0.00 0.33 0.00 46 981.5
20260507101110 38 162 0.0 3.0 0.00 0.33 0.00 46 981.5
20260507100610 38 214 1.0 4.0 0.00 0.33 0.00 45 981.5
20260507100216 38 202 3.0 8.0 0.00 0.33 0.00 47 981.5
20260507095610 38 191 2.0 5.0 0.00 0.33 0.00 47 981.4
20260507094608 38 157 3.0 8.0 0.00 0.33 0.00 48 981.5
20260507094108 38 206 3.0 8.0 0.00 0.33 0.00 47 981.7
20260507093606 38 248 2.0 6.0 0.00 0.33 0.00 47 981.8
20260507093106 38 221 2.0 6.0 0.00 0.33 0.00 47 981.7
20260507092610 37 235 2.0 5.0 0.00 0.33 0.00 48 981.5
20260507092606 37 230 2.0 6.0 0.00 0.33 0.00 48 981.7
20260507092216 37 198 2.0 6.0 0.00 0.33 0.00 50 981.8
20260507092212 37 184 2.0 5.0 0.00 0.33 0.00 49 981.8
20260507090609 36 198 2.0 5.0 0.00 0.33 0.00 52 981.8
20260507090605 37 225 2.0 6.0 0.00 0.33 0.00 50 981.8
20260507085606 36 221 3.0 5.0 0.00 0.33 0.00 53 981.8
20260507085104 35 223 2.0 5.0 0.00 0.33 0.00 55 981.8
20260507084608 34 230 1.0 6.0 0.00 0.33 0.00 58 982.0
20260507084604 35 180 2.0 6.0 0.00 0.33 0.00 57 981.9
20260507083603 34 245 0.0 4.0 0.00 0.33 0.00 58 982.0
20260507083107 34 243 1.0 4.0 0.00 0.33 0.00 60 981.9
20260507083103 34 256 0.0 2.0 0.00 0.33 0.00 59 982.0
20260507082104 33 198 1.0 4.0 0.00 0.33 0.00 62 981.9
20260507081604 33 205 1.0 3.0 0.00 0.33 0.00 64 981.9
20260507081104 32 231 1.0 3.0 0.00 0.33 0.00 67 982.0
20260507080601 31 210 0.0 3.0 0.00 0.33 0.00 71 982.0
20260507075602 27 224 0.0 1.0 0.00 0.33 0.00 85 982.1
20260507075102 25 160 0.0 1.0 0.00 0.33 0.00 89 982.1
20260507074607 24 183 0.0 0.0 0.00 0.33 0.00 87 982.5
20260507074602 24 183 0.0 0.0 0.00 0.33 0.00 88 982.2
20260507074101 24 183 0.0 0.0 0.00 0.33 0.00 88 982.5
20260507073707 25 183 0.0 0.0 0.00 0.33 0.00 87 982.5
20260507073101 25 183 0.0 0.0 0.00 0.33 0.00 87 982.5
20260507072101 25 183 0.0 0.0 0.00 0.33 0.00 86 982.5
20260507071601 25 183 0.0 0.0 0.00 0.33 0.00 87 982.5
20260507071105 26 183 0.0 0.0 0.00 0.33 0.00 88 982.5
20260507071101 26 183 0.0 0.0 0.00 0.33 0.00 88 982.5
20260507065601 25 184 0.0 0.0 0.00 0.33 0.00 89 982.6
20260507065106 26 184 0.0 0.0 0.00 0.33 0.00 89 982.6
20260507065102 26 184 0.0 0.0 0.00 0.33 0.00 89 982.5
20260507064101 26 184 0.0 0.0 0.00 0.33 0.00 90 982.7
20260507063601 26 184 0.0 0.0 0.00 0.33 0.00 90 982.6
20260507063101 26 184 0.0 0.0 0.00 0.33 0.00 89 982.6
20260507062601 26 184 0.0 0.0 0.00 0.33 0.00 88 982.5
20260507062107 26 184 0.0 0.0 0.00 0.33 0.00 90 982.5
20260507062101 26 184 0.0 0.0 0.00 0.33 0.00 89 982.5
20260507061602 26 184 0.0 0.0 0.00 0.33 0.00 89 982.5
20260507060601 26 184 0.0 0.0 0.00 0.33 0.00 90 982.6
20260507055604 26 202 0.0 0.0 0.00 0.33 0.33 90 982.6
20260507055600 26 201 0.0 0.0 0.00 0.33 0.33 90 982.5
20260507054605 26 202 0.0 0.0 0.00 0.33 0.33 88 982.5
20260507054600 26 202 0.0 0.0 0.00 0.33 0.33 90 982.6
20260507054100 26 202 0.0 0.0 0.00 0.33 0.33 89 982.5
20260507053100 27 202 0.0 0.0 0.00 0.33 0.33 88 982.5
20260507052600 27 202 0.0 0.0 0.00 0.33 0.33 88 982.5
20260507052059 28 202 0.0 0.0 0.00 0.33 0.33 87 982.4
20260507051600 28 202 0.0 0.0 0.00 0.33 0.33 87 982.4
20260507051100 28 202 0.0 0.0 0.00 0.33 0.33 87 982.4
20260507050559 28 202 0.0 0.0 0.00 0.33 0.33 87 982.4
20260507050057 28 202 0.0 0.0 0.00 0.33 0.33 87 982.4
20260507045557 29 202 0.0 0.0 0.00 0.33 0.33 86 982.4
20260507045056 29 202 0.0 0.0 0.00 0.33 0.33 85 982.4
20260507044600 30 202 0.0 0.0 0.00 0.33 0.33 85 982.4
20260507044556 29 202 0.0 0.0 0.00 0.33 0.33 86 982.5
20260507043556 30 202 0.0 0.0 0.00 0.33 0.33 84 982.4
20260507043055 30 202 0.0 0.0 0.00 0.33 0.33 83 982.2
20260507042554 31 202 0.0 0.0 0.00 0.33 0.33 83 982.2
20260507042056 31 202 0.0 0.0 0.00 0.33 0.33 83 982.2
20260507042052 31 202 0.0 0.0 0.00 0.33 0.33 83 982.1
20260507041056 31 202 0.0 0.0 0.00 0.33 0.33 82 982.0
20260507041052 31 202 0.0 0.0 0.00 0.33 0.33 82 982.1
20260507040052 32 202 0.0 0.0 0.00 0.33 0.33 81 982.1
20260507035552 32 201 0.0 2.0 0.00 0.33 0.33 80 982.1
20260507035052 33 202 0.0 2.0 0.00 0.33 0.33 80 982.1
20260507034550 33 200 0.0 3.0 0.00 0.33 0.33 80 982.0
20260507034051 33 194 0.0 2.0 0.00 0.33 0.33 81 982.0
20260507033553 32 184 0.0 6.0 0.00 0.33 0.33 81 982.0
20260507033050 32 176 0.0 6.0 0.00 0.33 0.33 82 981.9
20260507032550 32 167 0.0 2.0 0.00 0.33 0.33 82 981.9
20260507032050 32 134 0.0 2.0 0.00 0.33 0.33 83 981.9
20260507031550 32 162 0.0 1.0 0.00 0.33 0.33 83 981.9
20260507031049 32 196 0.0 3.0 0.00 0.33 0.33 82 981.9
20260507030548 32 171 1.0 3.0 0.00 0.33 0.33 81 981.8
20260507030052 33 168 3.0 5.0 0.00 0.33 0.33 81 981.7
20260507030048 33 176 1.0 5.0 0.00 0.33 0.33 81 981.8
20260507025548 33 192 2.0 5.0 0.00 0.33 0.33 81 981.7
20260507024548 33 158 3.0 7.0 0.00 0.33 0.33 80 981.7
20260507024048 33 165 3.0 7.0 0.00 0.33 0.33 80 981.5
20260507023548 33 169 3.0 7.0 0.00 0.33 0.33 80 981.5
20260507023048 33 169 3.0 7.0 0.00 0.33 0.33 81 981.5
20260507022548 33 173 3.0 9.0 0.00 0.33 0.33 81 981.5
20260507022051 34 172 3.0 8.0 0.00 0.33 0.33 80 981.5
20260507022047 34 150 3.0 9.0 0.00 0.33 0.33 80 981.5
20260507021048 34 188 3.0 8.0 0.00 0.33 0.33 80 981.5
20260507020548 34 155 2.0 6.0 0.00 0.33 0.33 79 981.5
20260507020048 34 172 2.0 6.0 0.00 0.33 0.33 79 981.7
20260507015548 34 154 2.0 5.0 0.00 0.33 0.33 79 981.5
20260507015052 35 180 1.0 3.0 0.01 0.33 0.33 77 981.5
20260507015048 34 198 1.0 5.0 0.01 0.33 0.33 78 981.5
20260507014048 35 141 0.0 3.0 0.01 0.33 0.33 76 981.7
20260507013548 35 174 0.0 2.0 0.01 0.33 0.33 76 981.7
20260507013046 36 179 0.0 2.0 0.02 0.33 0.33 75 981.5
20260507012546 36 135 0.0 1.0 0.02 0.33 0.33 74 981.7
20260507012046 37 189 0.0 1.0 0.02 0.33 0.33 73 981.7
20260507011552 38 190 0.0 1.0 0.03 0.33 0.33 70 981.7
20260507011546 37 163 0.0 1.0 0.03 0.33 0.33 72 981.7
20260507011046 38 193 0.0 1.0 0.03 0.33 0.33 71 981.8
20260507010046 39 200 0.0 2.0 0.04 0.33 0.33 67 981.7
20260507005545 40 136 0.0 3.0 0.04 0.33 0.33 66 981.7
20260507005046 40 137 0.0 3.0 0.04 0.32 0.32 66 981.7
20260507004546 40 215 1.0 4.0 0.04 0.32 0.32 67 981.8
20260507004046 40 148 2.0 5.0 0.05 0.32 0.32 66 981.7
20260507003544 40 151 1.0 5.0 0.05 0.32 0.32 66 981.7
20260507003044 40 146 0.0 4.0 0.05 0.31 0.31 65 981.7
20260507002544 40 169 0.0 2.0 0.06 0.31 0.31 65 981.7
20260507002042 40 180 1.0 4.0 0.06 0.31 0.31 66 981.7
20260507001546 40 196 0.0 4.0 0.07 0.30 0.30 64 981.8
20260507001542 40 160 1.0 4.0 0.06 0.30 0.30 64 981.7
20260507000540 40 148 1.0 4.0 0.07 0.30 0.30 65 981.8
20260507000040 40 168 1.0 4.0 0.07 0.29 0.29 63 981.8
20260506235540 42 169 0.0 4.0 0.07 0.29 0.29 60 981.8
20260506235044 42 131 0.0 2.0 0.07 0.28 0.28 61 981.8
20260506235040 42 188 0.0 2.0 0.07 0.28 0.29 62 981.8
20260506234645 42 136 0.0 2.0 0.07 0.27 0.27 62 981.8
20260506233543 42 186 0.0 1.0 0.07 0.27 0.27 60 981.9
20260506233539 42 217 0.0 1.0 0.07 0.27 0.26 61 981.9
20260506232538 42 142 0.0 0.0 0.06 0.26 0.25 63 982.0
20260506232036 41 262 0.0 1.0 0.07 0.26 0.25 63 982.1
20260506231536 42 295 0.0 1.0 0.07 0.25 0.24 63 981.9
20260506231036 41 111 0.0 1.0 0.06 0.24 0.24 62 982.0
20260506230539 40 108 0.0 1.0 0.07 0.23 0.22 66 981.9
20260506230535 41 0 0.0 1.0 0.07 0.24 0.23 65 981.8
20260506225535 40 131 0.0 1.0 0.08 0.23 0.22 69 981.9
20260506225035 38 120 0.0 1.0 0.07 0.22 0.21 69 982.0
20260506224535 38 195 0.0 1.0 0.08 0.22 0.21 67 982.0
20260506224035 38 39 0.0 1.0 0.07 0.21 0.20 70 982.0
20260506223536 38 85 0.0 1.0 0.07 0.21 0.20 69 982.0
20260506223036 38 143 0.0 1.0 0.07 0.20 0.19 71 982.0
20260506222535 37 212 0.0 2.0 0.08 0.20 0.19 72 982.1
20260506222039 38 204 1.0 3.0 0.07 0.18 0.18 67 982.1
20260506222035 37 218 1.0 3.0 0.07 0.19 0.18 68 982.1
20260506221641 38 153 0.0 2.0 0.07 0.18 0.17 71 982.2
20260506220535 37 248 0.0 2.0 0.07 0.17 0.16 75 982.4
20260506220036 36 328 0.0 2.0 0.06 0.16 0.15 75 982.4
20260506215535 35 251 0.0 4.0 0.06 0.15 0.14 76 982.4
20260506215138 34 302 0.0 4.0 0.06 0.15 0.14 77 982.5
20260506214636 34 257 0.0 2.0 0.05 0.14 0.14 77 982.6
20260506214137 35 236 0.0 3.0 0.06 0.14 0.13 75 982.6
20260506212527 35 345 0.0 2.0 0.05 0.12 0.12 72 982.8
20260506212027 35 318 0.0 2.0 0.05 0.13 0.11 74 982.7
20260506211527 35 324 0.0 1.0 0.05 0.12 0.10 74 982.8
20260506211027 36 340 0.0 3.0 0.05 0.12 0.10 71 982.8
20260506210527 36 15 0.0 3.0 0.04 0.11 0.09 73 982.8
20260506210027 36 328 0.0 3.0 0.05 0.11 0.09 71 982.8
20260506205529 37 91 0.0 2.0 0.05 0.10 0.08 73 982.8
20260506205525 36 332 0.0 2.0 0.04 0.10 0.08 72 982.8
20260506204525 37 354 0.0 1.0 0.05 0.10 0.08 76 982.8
20260506204025 37 323 0.0 2.0 0.04 0.09 0.07 75 982.8
20260506203525 36 1 0.0 3.0 0.04 0.09 0.07 78 982.8
20260506203025 35 349 1.0 3.0 0.04 0.08 0.06 77 983.0
20260506202525 35 21 1.0 5.0 0.04 0.08 0.06 80 983.0
20260506202027 34 4 1.0 5.0 0.04 0.08 0.06 79 983.1
20260506201527 35 349 0.0 3.0 0.03 0.07 0.05 79 983.1
20260506201026 35 330 0.0 3.0 0.04 0.07 0.05 78 983.1
20260506200523 35 313 0.0 4.0 0.04 0.07 0.05 79 983.1
20260506200023 35 151 0.0 4.0 0.03 0.06 0.04 81 983.1
20260506195521 35 304 1.0 4.0 0.03 0.06 0.04 80 983.1
20260506195021 35 346 1.0 4.0 0.03 0.05 0.03 79 983.0
20260506194521 35 312 1.0 5.0 0.03 0.05 0.03 78 983.0
20260506194022 35 343 1.0 5.0 0.03 0.05 0.03 81 983.1
20260506193521 34 335 1.0 6.0 0.03 0.05 0.03 84 983.0
20260506193021 33 6 2.0 6.0 0.02 0.04 0.03 83 983.0
20260506192521 34 333 1.0 6.0 0.02 0.04 0.02 83 983.0
20260506192021 35 27 1.0 6.0 0.02 0.04 0.02 83 983.1
20260506191519 34 332 0.0 6.0 0.02 0.05 0.02 85 982.8
20260506191019 34 352 0.0 0.0 0.01 0.04 0.01 87 983.0
20260506190520 33 2 0.0 1.0 0.01 0.04 0.01 88 983.0
20260506190019 33 30 0.0 1.0 0.01 0.04 0.01 88 983.1
20260506185523 33 332 0.0 0.0 0.00 0.03 0.00 88 983.1
20260506185519 33 347 0.0 0.0 0.01 0.04 0.01 87 983.0
20260506184519 33 358 0.0 0.0 0.00 0.03 0.00 88 983.1
20260506184019 33 35 0.0 0.0 0.00 0.04 0.00 87 983.1
20260506183519 33 340 0.0 0.0 0.00 0.04 0.00 87 983.2
20260506183019 33 321 0.0 0.0 0.00 0.04 0.00 89 983.1
20260506182517 33 338 0.0 0.0 0.00 0.04 0.00 90 983.1
20260506182017 33 341 0.0 0.0 0.00 0.04 0.00 90 983.1
20260506181521 32 12 0.0 0.0 0.00 0.04 0.00 91 983.2
20260506181518 33 323 0.0 0.0 0.00 0.04 0.00 91 983.1
20260506180517 32 330 0.0 0.0 0.00 0.04 0.00 91 983.1
20260506180022 32 321 0.0 0.0 0.00 0.04 0.00 92 983.0
20260506180017 32 338 0.0 0.0 0.00 0.04 0.00 91 983.1
20260506175517 32 330 0.0 0.0 0.00 0.04 0.00 91 983.0
20260506174517 32 1 0.0 0.0 0.00 0.04 0.00 91 983.0
20260506174024 32 331 0.0 0.0 0.00 0.04 0.00 93 983.0
20260506174017 33 316 0.0 0.0 0.00 0.04 0.00 92 983.0
20260506173517 33 323 0.0 0.0 0.00 0.04 0.00 93 983.0
20260506172518 32 10 0.0 0.0 0.00 0.04 0.00 93 983.0
20260506172018 32 6 0.0 0.0 0.00 0.04 0.00 94 982.8
20260506171517 32 329 0.0 0.0 0.00 0.04 0.00 93 982.8
20260506171021 33 23 0.0 0.0 0.00 0.05 0.00 94 982.5
20260506171017 32 37 0.0 0.0 0.00 0.04 0.00 94 982.7
20260506170516 33 323 0.0 0.0 0.00 0.05 0.00 94 982.5
20260506165517 33 350 0.0 0.0 0.00 0.05 0.00 95 982.1
20260506165015 33 324 0.0 0.0 0.00 0.05 0.00 96 982.2
20260506164515 33 34 0.0 0.0 0.00 0.05 0.00 96 982.4
20260506164015 33 321 0.0 0.0 0.00 0.05 0.00 96 982.2
20260506163515 33 27 0.0 0.0 0.00 0.05 0.00 96 982.4
20260506163020 32 350 0.0 0.0 0.00 0.05 0.00 96 982.2
20260506163016 32 326 0.0 0.0 0.00 0.05 0.00 96 982.4
20260506162620 31 331 0.0 0.0 0.00 0.05 0.00 96 982.2
20260506161517 31 348 0.0 0.0 0.00 0.05 0.00 96 982.1
20260506161513 31 1 0.0 0.0 0.00 0.05 0.00 96 982.1
20260506160512 31 6 0.0 0.0 0.00 0.05 0.00 96 982.1
20260506160010 31 344 0.0 0.0 0.00 0.05 0.00 96 982.0
20260506155509 31 343 0.0 0.0 0.00 0.05 0.00 96 982.1
20260506155008 31 11 0.0 0.0 0.00 0.05 0.00 96 982.1
20260506154509 31 17 0.0 0.0 0.00 0.05 0.00 95 982.1
20260506154008 31 321 0.0 0.0 0.00 0.05 0.00 96 982.1
20260506153510 31 27 0.0 0.0 0.00 0.05 0.00 96 982.0
20260506153506 31 327 0.0 0.0 0.00 0.05 0.00 96 982.0
20260506152505 31 356 0.0 0.0 0.00 0.05 0.00 96 981.9
20260506152005 31 321 0.0 0.0 0.00 0.05 0.00 96 981.8
20260506151504 31 327 0.0 0.0 0.00 0.05 0.00 96 981.8
20260506151004 31 340 0.0 0.0 0.00 0.05 0.00 96 981.7
20260506150504 31 335 0.0 0.0 0.00 0.05 0.00 97 981.5
20260506150004 31 309 0.0 0.0 0.00 0.05 0.00 97 981.5
20260506145508 31 329 0.0 0.0 0.00 0.05 0.00 97 981.4
20260506145504 32 339 0.0 0.0 0.00 0.05 0.00 97 981.4
20260506144505 31 328 0.0 0.0 0.00 0.06 0.00 97 981.4
20260506144004 31 356 0.0 0.0 0.00 0.06 0.00 97 981.5
20260506143509 31 356 0.0 0.0 0.00 0.06 0.00 97 981.5
20260506143504 31 356 0.0 0.0 0.00 0.06 0.00 97 981.5
20260506142502 30 356 0.0 0.0 0.00 0.06 0.00 97 981.5
20260506142002 30 356 0.0 0.0 0.00 0.06 0.00 97 981.4
20260506141503 29 356 0.0 0.0 0.00 0.06 0.00 97 981.3
20260506141003 29 328 0.0 0.0 0.00 0.06 0.00 97 981.3
20260506140502 29 356 0.0 0.0 0.00 0.07 0.00 97 981.3
20260506140005 29 356 0.0 0.0 0.00 0.07 0.00 96 981.4
20260506140001 28 356 0.0 0.0 0.00 0.07 0.00 96 981.4
20260506135001 28 15 0.0 0.0 0.00 0.07 0.00 96 981.4
20260506134459 28 10 0.0 2.0 0.00 0.08 0.00 96 981.3
20260506133959 28 338 0.0 2.0 0.00 0.08 0.00 96 981.3
20260506133459 28 352 0.0 1.0 0.00 0.08 0.00 96 981.3
20260506132959 28 22 0.0 1.0 0.00 0.08 0.00 96 981.2
20260506132457 29 352 0.0 1.0 0.00 0.08 0.00 97 981.2
20260506132000 28 356 0.0 0.0 0.00 0.08 0.00 97 980.8
20260506131956 29 16 0.0 0.0 0.00 0.08 0.00 97 980.9
20260506130952 28 358 0.0 0.0 0.00 0.08 0.00 97 980.7
20260506130452 28 8 0.0 3.0 0.00 0.08 0.00 97 980.7
20260506125955 28 344 0.0 3.0 0.00 0.08 0.00 97 980.6
20260506125951 27 110 0.0 0.0 0.00 0.08 0.00 96 980.6
20260506124950 27 110 0.0 0.0 0.00 0.08 0.00 96 980.5
20260506124450 27 126 0.0 0.0 0.00 0.08 0.00 96 980.5
20260506123950 27 127 0.0 0.0 0.00 0.08 0.00 96 980.5
20260506123450 27 353 0.0 0.0 0.00 0.08 0.00 96 980.2
20260506122954 27 24 0.0 0.0 0.00 0.08 0.00 96 980.2
20260506122950 27 345 0.0 0.0 0.00 0.08 0.00 96 980.2
20260506122555 27 338 0.0 0.0 0.00 0.08 0.00 96 980.4
20260506121452 27 312 0.0 0.0 0.00 0.08 0.00 96 980.2
20260506121448 27 11 0.0 0.0 0.00 0.08 0.00 96 980.4